Location: Goettingen
(51.5300°N, 9.9433°E)
Time: 19:44:54
(UTC+02:00)

ISS - Pass Details

Date: 12 July 2019
Orbit: 409 x 418 km, 51.6° (Epoch: 20 July)

Event Time Altitude Azimuth Distance (km) Brightness Sun altitude
Exits shadow 01:39:35 36° 140° (SE) 674 -3.1 -16.4°
Drops below altitude 10° 01:42:24 10° 84° (E) 1,481 -0.9 -16.3°
Sets 01:44:34 0° 76° (ENE) 2,344 0.3 -16.3°
